Dewpoint
35 41 43 43 52 58 58 58 58 57 57 56 54 52 51 49 48 46 46 46 46 42 40 41 38 37 37 36 37 37 36 36 36 33 31 31 31 28 30 30 29 29 29
36 45 46 47 55 58 58 59 58 58 57 54 52 52 50 47 46 46 47 47 43 40 40 39 38 37 37 36 39 38 37 36 36 32 32 28 28 29 29 30 28 28 29
42 46 48 50 51 58 58 58 58 57 57 51 54 53 49 48 46 46 46 45 42 40 37 37 37 37 38 37 38 37 37 35 35 34 33 29 27 29 29 26 27 29 28
44 46 49 52 55 58 58 58 57 56 56 54 49 47 45 44 44 45 46 43 41 40 37 36 36 38 39 38 39 36 38 37 35 35 33 33 33 30 28 27 27 28 25
42 46 50 54 54 56 57 58 56 53 52 50 47 46 45 45 44 45 45 43 43 40 38 37 38 39 39 39 39 39 38 38 37 36 36 35 35 34 31 28 27 27 26
42 46 53 55 54 57 57 55 52 50 48 46 47 46 46 43 43 43 43 40 38 35 36 38 38 36 35 34 33 34 34 34 36 37 37 36 34 32 31 30 29 26 26
45 48 50 52 52 52 53 52 49 46 47 46 47 46 45 42 38 38 37 34 34 35 35 33 32 32 32 32 33 33 34 34 35 36 37 35 34 33 33 31 28 27 27
47 46 48 47 49 50 49 48 46 45 46 47 46 45 41 39 38 39 36 34 33 33 31 30 31 31 30 31 32 33 33 33 36 36 37 36 34 33 32 29 29 27 26
44 43 45 45 46 47 48 46 45 44 46 46 44 41 39 37 36 35 34 33 31 29 30 30 29 29 31 32 32 33 34 35 35 36 36 33 31 32 30 30 29 27 24
43 42 41 42 44 46 47 47 46 45 45 43 41 40 39 36 34 33 31 30 29 29 29 28 28 30 31 32 34 35 35 33 34 33 33 32 31 30 29 28 27 26 23
42 41 39 41 43 45 47 47 46 43 42 40 40 38 36 35 33 31 29 28 28 28 27 27 28 29 31 32 32 32 31 31 31 31 29 28 28 27 26 25 23 21 20
41 40 40 42 43 45 46 46 45 42 40 39 37 37 35 34 31 29 28 27 28 28 27 28 28 29 29 30 31 32 31 30 29 28 25 24 22 22 22 21 21 20 18
40 39 40 41 43 45 45 45 43 40 38 34 35 35 35 29 28 28 26 27 28 28 28 28 29 29 30 28 30 30 29 28 26 25 22 22 21 19 20 19 17 18 18
37 38 40 42 44 44 44 42 39 37 34 35 34 32 29 28 28 26 27 28 29 28 29 29 29 29 28 29 28 27 26 24 22 22 21 20 19 18 17 16 17 16 17
34 36 39 42 43 43 41 39 38 35 36 34 29 27 26 28 27 27 29 29 29 28 29 30 29 29 29 27 27 25 24 24 22 21 20 18 19 17 18 16 17 19 19
31 36 39 41 42 41 38 38 35 36 34 30 27 25 24 26 26 27 29 29 28 28 29 29 30 29 28 26 24 23 22 23 22 21 20 19 18 18 20 22 19 19 18
29 36 38 39 39 39 37 35 35 34 29 27 25 23 23 26 26 26 24 25 26 29 29 29 30 30 30 26 24 21 21 22 23 21 21 19 16 21 19 18 17 16 17
31 34 37 38 39 38 36 35 31 27 27 26 23 21 23 24 25 24 24 25 27 28 28 28 30 31 30 27 24 21 21 23 22 22 21 19 19 20 18 18 16 17 17
32 34 37 38 38 36 34 29 28 27 24 24 23 20 22 22 23 23 25 26 27 28 27 27 29 30 30 26 23 21 22 23 23 22 22 20 18 19 19 17 17 17 16
33 35 37 38 36 31 27 27 23 25 23 21 24 24 24 23 22 23 25 27 28 27 27 28 29 30 30 27 24 22 23 23 23 23 21 20 18 18 18 16 17 16 17
36 38 36 33 28 27 27 29 29 29 26 25 24 23 23 23 23 25 26 26 26 27 27 27 29 30 30 30 25 24 23 22 23 22 21 22 20 20 18 16 17 17 17
33 31 28 29 30 30 31 29 28 25 25 27 28 26 26 26 24 25 26 27 27 27 27 29 29 30 29 28 27 25 23 23 21 22 22 23 21 19 18 17 16 15 17
27 26 30 30 31 31 29 28 26 25 28 28 29 28 26 25 25 25 26 26 25 24 26 27 27 29 29 29 29 26 25 24 22 23 24 23 22 21 19 18 15 15 17
33 34 34 34 33 29 25 24 27 29 29 27 26 26 26 26 26 26 26 26 25 25 27 27 27 27 26 25 28 27 26 25 24 23 25 25 22 20 19 19 20 17 17
34 32 31 28 23 25 28 28 27 26 26 26 25 26 27 28 29 28 26 25 26 26 26 27 28 29 28 28 26 27 30 30 29 24 22 20 21 20 19 19 17 16 16
30 28 27 27 29 26 24 24 25 25 25 25 27 28 29 29 29 28 27 27 27 27 26 25 26 28 28 26 27 27 26 25 24 22 20 20 21 22 20 19 18 16 15
Wind_Speed
14 18 12 12 19 26 23 25 23 17 12 11 10 8 8 8 8 10 12 10 8 6 4 6 4 2 6 7 7 4 8 10 12 13 14 11 15 16 14 14 15 16 8
21 18 13 12 20 24 21 21 20 17 14 11 10 9 11 9 12 12 11 10 7 6 7 3 5 8 7 9 7 9 10 10 7 13 15 13 12 11 16 11 14 15 14
23 18 17 15 12 23 20 21 19 15 18 14 12 12 13 12 10 13 11 11 7 7 4 3 3 3 5 7 9 9 11 9 10 11 12 15 11 16 9 15 16 15 14
24 21 19 16 12 17 17 19 20 20 17 14 15 17 11 13 13 15 12 12 7 4 2 1 1 1 5 8 9 10 13 12 13 11 10 9 11 9 15 6 12 14 13
20 21 21 21 16 16 17 22 22 19 16 14 14 12 8 12 10 12 14 9 13 12 10 9 5 2 4 7 11 12 13 11 13 9 9 8 10 12 13 15 11 13 11
15 18 21 19 18 20 22 17 19 18 18 12 11 11 7 11 9 6 8 5 3 3 6 12 11 10 10 11 12 13 14 15 13 9 7 8 9 11 8 10 13 15 13
14 15 19 20 21 21 20 16 17 18 16 12 9 8 8 6 9 5 4 3 3 5 9 10 9 8 10 12 13 14 14 15 16 6 8 6 10 12 8 10 13 13 13
13 15 18 19 19 17 14 13 14 16 15 13 11 10 10 8 5 6 4 6 4 6 7 7 8 10 11 13 13 13 14 15 8 8 8 9 10 8 6 7 8 14 14
17 18 19 19 18 16 15 16 16 17 16 14 13 12 6 5 4 9 7 2 4 2 7 7 8 10 11 12 14 12 11 11 10 7 8 8 8 4 5 5 9 12 20
18 18 21 20 20 19 19 16 15 18 16 16 13 10 9 9 8 5 4 3 2 3 5 7 7 9 10 10 10 11 13 13 10 8 11 11 9 9 9 10 12 14 16
19 19 20 19 18 19 18 16 15 17 15 13 12 10 10 9 7 6 4 2 2 3 6 7 8 8 7 12 13 9 10 11 10 9 9 10 11 11 10 10 11 13 14
19 21 20 20 17 17 16 14 12 16 15 12 10 10 9 12 11 7 5 4 1 3 6 7 9 8 5 5 9 11 8 8 9 10 10 12 11 13 12 12 14 15 17
19 20 21 19 19 16 16 16 13 13 13 12 12 12 14 10 7 5 5 2 2 5 6 9 9 6 5 7 8 11 7 7 7 10 9 10 12 12 10 13 14 14 15
16 18 19 19 18 16 15 16 14 13 12 11 14 15 12 8 5 3 3 1 4 6 8 9 8 3 5 9 12 5 5 10 12 13 10 10 9 7 9 10 10 12 14
13 14 12 15 15 15 15 16 15 13 10 13 11 8 7 6 3 2 1 4 4 7 9 12 8 1 5 9 4 4 7 10 13 14 10 9 8 7 4 8 9 10 12
10 7 7 8 13 15 16 14 14 13 14 9 5 5 5 3 1 1 3 5 7 8 8 9 5 4 7 7 4 3 3 7 13 13 9 9 13 4 5 6 7 11 14
8 8 10 10 10 13 14 14 14 12 9 5 2 2 2 3 2 5 6 7 6 6 7 12 7 5 1 10 7 3 2 7 12 11 7 8 10 10 9 11 14 15 19
6 4 5 8 7 13 15 11 12 11 7 4 2 0 3 3 5 5 9 8 6 5 10 10 3 5 10 15 10 5 4 9 11 9 9 10 6 7 6 8 12 14 15
5 3 1 5 8 10 14 12 10 7 8 7 4 1 4 5 5 7 9 8 8 7 9 10 3 5 3 10 9 6 5 7 9 9 12 9 7 6 9 9 12 15 15
6 2 3 8 14 14 13 11 10 8 8 9 9 7 7 8 9 10 9 8 9 10 9 3 3 3 2 11 12 8 4 6 8 10 9 5 5 5 7 9 11 14 15
9 13 17 16 16 14 13 14 15 12 7 2 6 7 9 9 8 6 7 9 12 13 9 5 4 5 6 9 15 13 7 7 7 7 9 3 3 8 12 10 10 13 13
18 16 20 23 23 20 18 14 10 3 8 7 7 8 11 11 12 9 9 11 14 8 9 5 5 7 8 11 18 17 14 8 6 9 10 9 10 14 13 13 13 13 13
13 19 21 19 18 17 14 9 1 4 3 7 8 10 13 13 12 10 11 12 12 6 7 7 8 8 8 13 11 17 16 13 10 10 12 9 12 17 14 13 11 11 12
21 20 18 15 12 7 2 6 4 2 6 10 10 12 12 10 9 11 13 13 10 5 7 8 10 9 10 11 8 12 12 14 11 13 11 8 14 17 17 16 13 4 8
16 14 12 8 5 3 1 8 9 6 7 10 11 10 9 11 12 12 11 7 6 7 10 9 9 11 11 10 6 4 7 8 8 4 5 9 13 10 7 9 8 6 6
11 8 5 4 5 7 7 6 5 8 10 9 9 10 9 8 10 11 13 14 13 12 15 16 16 12 13 9 9 10 11 12 9 6 8 11 14 11 7 9 11 6 6
Wind_Direction
152 145 165 173 145 140 146 150 147 155 153 150 145 152 140 136 138 136 170 183 152 114 29 61 95 108 5 3 332 330 338 322 335 340 329 325 306 331 320 4 353 339 324
172 148 172 182 143 147 153 150 148 161 186 180 167 146 149 162 161 168 186 174 147 127 145 82 17 33 356 329 352 350 322 316 329 337 312 316 308 304 342 349 357 347 347
164 164 176 193 187 152 159 154 159 177 213 162 154 148 167 175 158 153 174 141 159 163 148 140 70 10 341 338 326 307 297 320 314 303 300 313 307 323 320 331 332 334 333
165 173 176 184 179 156 161 168 178 190 197 163 167 159 162 165 185 170 177 146 150 176 233 52 355 337 339 313 309 316 315 303 298 294 293 325 320 317 312 315 317 303 315
170 174 178 167 185 162 178 184 190 173 156 190 153 170 183 134 120 112 126 151 175 188 210 216 223 238 324 325 322 326 326 307 283 286 307 304 307 299 289 297 298 307 299
177 171 150 155 167 179 184 181 179 166 152 183 149 180 144 113 121 135 147 203 144 42 41 46 30 4 352 338 322 311 305 299 291 286 299 287 283 285 290 295 296 295 303
168 171 153 162 164 171 180 170 170 149 155 160 178 154 121 103 101 115 138 222 27 33 43 34 3 345 329 321 317 311 301 290 286 282 281 293 292 280 269 286 289 295 306
165 167 163 161 162 160 155 169 174 154 163 166 161 134 124 136 126 225 76 33 35 36 34 16 359 339 330 324 319 311 304 298 338 338 313 296 278 286 290 285 304 309 295
172 171 168 158 160 166 169 188 180 165 158 161 131 124 132 150 139 96 96 295 54 340 29 4 340 328 327 317 300 300 316 357 343 344 315 310 311 284 308 301 279 273 293
180 182 177 168 172 177 179 191 177 158 160 138 135 147 177 124 103 103 204 105 74 26 338 341 328 323 309 312 7 343 340 339 340 350 350 320 327 314 291 283 291 288 285
187 188 183 178 179 178 173 182 175 155 147 151 156 157 145 128 172 180 150 141 91 338 340 327 318 312 343 3 343 330 317 355 353 334 304 297 293 293 315 324 319 323 326
196 188 186 177 184 174 167 176 190 156 155 155 150 161 157 199 179 177 170 151 32 337 318 316 299 305 353 350 330 314 304 307 304 307 313 326 337 343 343 342 349 339 331
198 194 185 183 183 175 171 184 179 154 152 152 176 197 202 188 175 172 147 139 334 330 312 301 304 314 20 318 276 280 311 301 304 310 336 340 338 331 352 359 337 326 319
208 208 186 182 174 176 181 169 159 157 153 184 203 204 189 186 128 117 110 36 327 305 296 300 294 353 325 295 278 284 4 348 341 341 331 324 321 10 331 325 314 311 321
208 218 193 173 169 175 182 157 161 152 183 210 201 203 110 91 103 123 77 272 317 301 291 280 264 273 289 296 68 43 12 340 325 316 321 333 345 299 269 274 293 323 310
223 200 226 203 185 186 162 165 158 172 200 198 190 70 65 101 118 279 272 279 272 280 290 310 332 343 305 134 124 90 4 323 316 305 334 335 313 353 243 300 351 311 306
323 190 207 209 208 167 160 166 176 168 158 124 73 107 166 177 249 272 282 285 294 306 319 297 259 261 331 164 161 152 297 304 294 305 317 322 315 55 17 353 335 317 305
318 309 197 203 194 151 162 149 134 136 130 184 164 254 176 210 245 284 291 284 273 301 287 297 203 239 274 178 174 187 273 285 301 309 331 310 321 79 19 340 323 311 308
345 302 168 143 134 124 116 121 115 127 102 50 280 315 347 308 315 293 297 299 285 282 292 283 249 253 197 173 177 201 259 290 310 328 302 307 310 59 7 341 314 309 310
337 336 127 111 103 99 112 114 125 96 60 41 16 344 316 319 319 310 318 314 301 291 289 16 350 337 37 186 201 207 249 293 299 292 322 74 73 21 335 319 310 305 306
33 72 69 72 83 82 90 72 58 49 33 328 302 313 314 305 301 308 308 302 294 285 283 241 215 257 193 195 207 210 216 237 279 314 302 272 82 346 333 316 296 284 303
69 70 74 66 53 57 65 63 51 16 41 10 301 303 314 309 293 279 286 287 280 300 308 274 233 244 245 247 201 208 212 220 239 263 281 297 332 321 305 297 276 286 295
83 80 84 76 63 55 58 64 334 40 359 330 313 292 287 282 285 284 280 279 281 276 296 287 266 253 254 256 228 209 216 218 228 246 256 289 296 287 280 279 268 274 281
67 70 76 71 66 66 106 31 17 320 261 260 273 273 274 296 302 291 277 272 285 247 256 261 265 268 260 265 208 211 215 228 228 245 268 259 268 272 265 278 278 255 280
78 78 79 79 105 83 257 230 233 250 284 279 276 293 302 291 291 290 298 313 313 305 273 260 264 258 261 261 235 208 215 218 217 213 268 284 278 266 287 300 298 294 306
85 102 147 210 251 253 273 294 286 260 263 282 287 285 292 306 309 311 320 312 300 287 275 258 250 250 242 238 224 228 237 250 244 237 263 273 276 270 266 281 285 284 300